一网星座-0012星 (ONEWEB-0012)

导读

ONEWEB-0012(又名NanuqSat)是英国一网(OneWeb)星座的首批原型通信卫星,由空客防务与航天公司研制,于2019年2月27日在圭亚那航天中心由联盟ST-B运载火箭发射。卫星重约147kg,运行于1200公里近地极地轨道,设计寿命7年,配备Ku频段有效载荷,可提供高速卫星互联网接入,是OneWeb构建全球低轨通信网络的首批验证卫星之一。

基本信息
目录编号:
44057
目录名称:
ONEWEB-0012
国际标识:
2019-010A
轨道中心:
EARTH
卫星名称:
一网星座-0012星
卫星全名:
一网星座-0012星 (ONEWEB-0012)
卫星状态:
在轨 (已飞行2757 天)
发射日期:
2019-02-27 UTC
国别 :
英国 (GB)
星等 :
--
该卫星已列入 空间交会检测服务 Space Conjunction Data Service (SCDS) ,当前飞行风险评估等级: 无高风险
轨道信息
数据来源 国际轨道数据 AOE轨道数据
星历时间 2026-09-15T15:25:47+0800
16小时前
查看轨道信息
2026-09-11T06:00:00+0800
5天前
查看轨道信息
半长轴 7575.898km 7575.902km
偏心率 0.0002482 0.0002665
轨道倾角 87.914° 87.914°
近地点辐角 85.913° 81.404°
升交点赤经 210.887° 211.756°
平近点角 274.229° 349.421°
近地点 1195.88km 1195.746km
远地点 1199.642km 1199.784km
周期 109.373分钟 109.373分钟
每日圈数 13.165933 13.165922
详细信息
平衡模式:
三轴稳定
覆盖范围:
全球
运营商:
一网卫星公司
运营商所在国:
英国
制造商(研发单位):
空客防务与航天公司
制造商所在国:
法国大都会
使用方式:
暂无
卫星简介
OneWeb卫星网络由648颗重约125公斤的微型卫星组成,运行在1200公里的轨道上。 每颗卫星都能够提供至少每秒8千兆位的吞吐量,以使用其高吞吐量的Ku频段有效载荷为家庭和移动平台提供互联网接入。该卫星仍在工作。
2D轨道图
3D轨道图
轨道高度分析图
轨道倾角分析图
轨道综合分析图
查看轨道综合分析图
与全量物体交会距离演化趋势 订阅飞行安全评估服务
与全量物体交会风险概率演化趋势 订阅飞行安全评估服务